This is the latest recevied weather packets stored in our database for station/object WA4IKQ. If no packets are shown the sender has not sent any weather packets the latest 10 day(s).
| Time | Temp. | Humidity | Pressure | Rain* | Wind** | Luminosity | Snow |
|---|---|---|---|---|---|---|---|
| 1777570064 | 30.56° C | 47% | 1011.6 hPa | 0 mm | 2.68 m/s, 278° | - | - |
| 1777569935 | 31.11° C | 47% | 1011.4 hPa | 0 mm | 3.58 m/s, 260° | - | - |
| 1777569764 | 31.11° C | 47% | 1011.4 hPa | 0 mm | 3.58 m/s, 260° | - | - |
| 1777569601 | 31.11° C | 46% | 1011.4 hPa | 0 mm | 2.24 m/s, 229° | - | - |
| 1777569546 | 31.11° C | 46% | 1011.4 hPa | 0 mm | 2.24 m/s, 229° | - | - |
| 1777569465 | 31.11° C | 46% | 1011.4 hPa | 0 mm | 2.24 m/s, 229° | - | - |
| 1777569285 | 31.11° C | 47% | 1011.4 hPa | 0 mm | 1.79 m/s, 284° | - | - |
| 1777569240 | 31.11° C | 47% | 1011.4 hPa | 0 mm | 1.79 m/s, 284° | - | - |
| 1777569162 | 31.11° C | 47% | 1011.4 hPa | 0 mm | 1.79 m/s, 284° | - | - |
| 1777568906 | 31.11° C | 48% | 1011.4 hPa | 0 mm | 0.89 m/s, 163° | - | - |
| 1777568862 | 31.11° C | 48% | 1011.4 hPa | 0 mm | 0.89 m/s, 163° | - | - |
| 1777568775 | 30.56° C | 47% | 1011.6 hPa | 0 mm | 3.13 m/s, 195° | - | - |
| 1777568562 | 30.56° C | 47% | 1011.6 hPa | 0 mm | 3.13 m/s, 195° | - | - |
| 1777568323 | 30.56° C | 49% | 1011.3 hPa | 0 mm | 4.02 m/s, 134° | - | - |
| 1777568263 | 30.56° C | 49% | 1011.3 hPa | 0 mm | 4.02 m/s, 134° | - | - |
| 1777568086 | 30° C | 49% | 1011.5 hPa | 0 mm | 3.58 m/s, 180° | - | - |
| 1777568054 | 30° C | 49% | 1011.5 hPa | 0 mm | 3.58 m/s, 180° | - | - |
| 1777567963 | 30° C | 49% | 1011.5 hPa | 0 mm | 3.58 m/s, 180° | - | - |
| 1777567722 | 30° C | 48% | 1011.4 hPa | 0 mm | 3.13 m/s, 184° | - | - |
| 1777567663 | 30° C | 48% | 1011.4 hPa | 0 mm | 3.13 m/s, 184° | - | - |
| 1777567417 | 29.44° C | 50% | 1011.3 hPa | 0 mm | 3.58 m/s, 207° | - | - |
| 1777567363 | 29.44° C | 50% | 1011.3 hPa | 0 mm | 3.58 m/s, 207° | - | - |
| 1777567197 | 29.44° C | 49% | 1011.5 hPa | 0 mm | 2.68 m/s, 188° | - | - |
| 1777567130 | 29.44° C | 49% | 1011.5 hPa | 0 mm | 2.68 m/s, 188° | - | - |
| 1777567062 | 29.44° C | 49% | 1011.5 hPa | 0 mm | 2.68 m/s, 188° | - | - |
* Rain latest hour (hover to see other rain measurements)
** Current wind speed in m/s (hover to see current wind gust speed)